Location: Marcé
(47.5801°N, 0.3280°W)
Time: 05:37:55
(UTC+01:00)

Tiros 1 despin weight - Pass Details

Date: 09 December 2021
Orbit: 592 x 641 km, 48.2° (Epoch: 21 January)

Event Time Altitude Azimuth Distance (km) Brightness Sun altitude
Rises 10:57:36 0° 195° (SSW) 2,855 ? 14.9°
Reaches altitude 10° 11:00:45 10° 172° (S) 1,945 ? 15.1°
Maximum altitude 11:03:17 15° 138° (SE) 1,639 ? 15.3°
Drops below altitude 10° 11:05:47 10° 103° (ESE) 1,936 ? 15.5°
Sets 11:08:55 0° 80° (E) 2,835 ? 15.7°
